www.pogodaiklimat.ru

Погода и климат >> Архив погоды >> Россия >> Карачаево-Черкессия >> Зеленчукская


ПОГОДА в Зеленчукской

  • Прогноз погоды в Зеленчукской
  • Монитор погоды в Зеленчукской

АРХИВ ПОГОДЫ в Зеленчукской

Время (UTC), дата Ветер
(напр.,м/с)
 
Видим.   Явления Облачность Т
(С)
Тd
(С)
f
(%)
Тe
(С)
Тes
(С)
Комфортность P
(гПа)
Po
(гПа)
Тmin
(С)
Tmax
(С)
R
(мм)
R24
(мм)
S
(см)
21 11.01 Ю 3 20 км 10/10 600 м
[Sc]
+7.0 -5.8 40 +5 +5 1012.7 904.9
00 12.01 З 5-10
{10}
20 км 10/10 600 м
[Sc]
+8.0 -5.7 37 +5 +5 1011.6 904.3
03 12.01 З 3
{10}
50 км 9/4 600 м
[Sc Ac trans]
+5.5 -4.1 50 +3 +3 1010.5 902.4 +0.5 1
06 12.01 Ю 2 50 км 9/3 600 м
[Sc Ac trans Ci fib]
+4.7 -5.1 49 +3 +3 1011.7 903.2
09 12.01 Ю 1 50 км 10/3 600 м
[Sc Ac trans Ci fib]
+8.4 -3.7 42 +8 +10 1009.2 902.3
12 12.01 З 2 50 км 10/1 600 м
[Sc Ac trans Cs]
+4.2 -1.0 69 +2 +2 1010.5 902.0 +10.6
15 12.01 ЮВ 1 2000 м дымка 10/10 600 м
[Sc]
+0.2 -1.2 90 -2 -2 1013.3 903.0 +10.6
18 12.01 ЮВ 2 4000 м дымка 10/10 600 м
[Sc]
-0.2 -1.7 90 -4 -4 1013.1 902.7
21 12.01 Ю 1 4000 м дымка 10/10 600 м
[Sc]
-0.6 -2.0 90 -3 -3 1010.8 900.4
00 13.01 СЗ 1 2000 м дымка 10/10 600 м
[Sc]
-1.5 -2.1 96 -4 -4 1009.1 898.6
03 13.01 штиль 0 500 м туман ?/? -3.0 -3.0 100 -4 -4 1009.1 898.1 -3.0 1
06 13.01 штиль 0 50 км в посл. час туман 10/3 600 м
[Sc Ac As Ci fib]
-3.4 -3.4 100 -5 -4 1010.3 898.9
09 13.01 С 1 20 км {туман} 10/10 600 м
[Sc]
+0.1 -0.7 94 -2 -2 1008.5 898.7
12 13.01 Ю 1 20 км {туман} 10/10 600 м
[Sc]
+1.2 -1.5 82 -1 -1 1007.8 898.5 +1.5
15 13.01 ЮВ 1 10 км 10/10 600 м
[Sc]
-0.5 -0.7 99 -3 -3 1009.4 899.3 +1.5
18 13.01 ЮВ 1 10 км 10/10 600 м
[Sc]
-0.9 -0.9 100 -3 -3 1009.2 898.9
21 13.01 ЮВ 1 500 м туман ?/? -1.6 -1.6 100 -4 -4 1009.7 899.1
00 14.01 В 1 500 м туман ?/? -2.3 -2.3 100 -5 -5 1009.3 898.5
03 14.01 ЮВ 1 20 км в посл. час туман 10/10 600 м
[Sc]
-2.4 -2.4 100 -5 -5 1008.7 897.9 -2.7 1
06 14.01 ЮВ 1 20 км 10/10 600 м
[Sc]
-2.4 -3.2 94 -5 -5 1009.2 898.3
09 14.01 СЗ 1 20 км 4/3 600 м
[Sc Ac trans]
+1.1 -3.4 72 -1 +3 1006.1 896.9
12 14.01 штиль 0 50 км 3/0
[Ac trans]
+6.1 -3.9 49 +6 +7 1003.4 896.3 +6.1
15 14.01 штиль 0 50 км 9/0
[Ac As]
+0.1 -3.4 77 -1 -1 1006.0 896.4 +6.1
18 14.01 ЮВ 1 50 км 9/0
[Ac As]
-0.8 -3.9 79 -3 -3 1006.7 896.7
21 14.01 З 4 50 км 8/0
[Ac trans]
+3.1 -6.0 51 -1 -1 1005.6 897.1
00 15.01 штиль 0 50 км 4/0
[Ac trans]
-1.2 -6.1 69 -2 -2 1007.2 897.0
03 15.01 СВ 1 50 км 3/0
[Ac trans]
-3.0 -6.7 76 -5 -5 1008.1 897.1 -3.3 1
06 15.01 Ю 2 50 км 6/1 600 м
[Sc Ac trans Ci fib]
-0.8 -6.1 67 -4 -4 1008.6 898.4
09 15.01 В 1 50 км 10/3 600 м
[Sc Ac trans Ci fib]
+7.9 -6.0 37 +8 +10 1004.2 897.6
12 15.01 З 1 50 км 10/6 600 м
[Sc Ac trans Ci fib]
+8.3 -3.1 44 +8 +9 1003.0 896.8
15 15.01 Ю 1 50 км 10/8 600 м
[Sc Ac trans Ci fib]
+1.5 -3.1 71 0 0 1005.1 896.2 +11.0
18 15.01 ЮВ 1 50 км 9/8 600 м
[Sc Ci fib]
-0.8 -4.0 79 -3 -3 1003.0 893.4
21 15.01 ЮЗ 1 50 км 10/4 600 м
[Sc Ac trans Ci fib]
+1.2 -3.7 70 -0 -0 1000.6 892.1
00 16.01 СВ 2 50 км 10/10 600 м
[]
+2.3 -2.7 70 -1 -1 998.8 890.9
03 16.01 Ю 5 50 км 9/0
[Ac trans Ci fib]
+7.1 -1.2 56 +4 +4 997.4 891.4 -1.6
06 16.01 СЗ 1
{11}
50 км 10/4 600 м
[Cb calv Ac trans Ci fib]
+4.2 -1.3 67 +3 +3 999.7 892.4
09 16.01 СЗ 4 50 км 9/3 600 м
[Cb calv Ac trans Ci fib]
+9.4 -0.2 51 +7 +8 999.3 893.9
12 16.01 З 2 20 км слаб. ливневой снег 10/10 600 м
[Cb calv]
-0.2 -4.2 74 -4 -4 1006.7 897.0
15 16.01 С 2 4000 м слаб. ливневой снег 10/10 600 м
[Cb calv]
-3.2 -5.9 82 -7 -7 1011.1 899.7 +10.0 0.3
18 16.01 С 3 4000 м слаб. ливневой снег 10/10 600 м
[Cb calv]
-5.1 -8.1 79 -11 -11 1013.8 901.3
21 16.01 ЮВ 1 4000 м слаб. ливневой снег 10/10 600 м
[Cb calv]
-5.9 -7.3 90 -8 -8 1014.7 901.8
00 17.01 штиль 0 10 км {ливн. осадки} 10/10 600 м
[Cb calv]
-6.3 -7.9 88 -7 -7 1015.9 902.7
03 17.01 штиль 0 50 км 9/8 600 м
[Sc Ac trans]
-7.8 -8.9 92 -9 -9 1017.6 903.6 -8.1 1 2
06 17.01 ЮВ 2 50 км 10/3 600 м
[Sc Ac und]
-5.9 -7.7 87 -10 -10 1018.8 905.5
09 17.01 штиль 0 50 км 10/0
[Ac As]
-1.9 -7.3 67 -3 -1 1017.7 906.1
12 17.01 З 1 50 км 8/0
[Ac trans Ci fib]
-0.5 -10.6 46 -2 -0 1018.2 906.9
15 17.01 Ю 2 50 км 3/0
[Ci fib]
-7.0 -10.9 74 -11 -11 1023.2 908.9 -0.2
18 17.01 Ю 1 50 км ясно -9.7 -12.3 81 -12 -12 1026.2 910.5
21 17.01 штиль 0 50 км ясно -11.3 -13.1 87 -11 -11 1027.8 911.2
00 18.01 ЮВ 1 50 км ясно -11.2 -13.4 84 -13 -13 1028.9 912.2
03 18.01 Ю 1 50 км ясно -12.7 -14.2 89 -15 -15 1029.8 912.4 -13.0 2
06 18.01 штиль 0 50 км ясно -7.7 -11.5 74 -8 -7 1028.2 913.0
09 18.01 штиль 0 50 км ясно +1.1 -9.9 44 +1 +7 1023.4 912.2
12 18.01 штиль 0 50 км ясно +6.6 -11.7 26 +7 +9 1019.9 911.1
15 18.01 Ю 1 50 км ясно -3.4 -10.9 56 -5 -5 1024.8 911.7 +6.7

 

Местоположение метеостанции Зеленчукская (Карачаево-Черкессия, Россия): широта 43.87 долгота 41.57 высота над уровнем моря 929 м.

В архиве по умолчанию представлена погода в Зеленчукской за последнюю неделю. Архивные данные за месяц целиком и за предыдущие месяцы, начиная с января 2011 года, Вы можете получить, выбрав интересующий диапазон дат из раскрывающегося списка и нажав кнопку "Ввод!".


*Определитесь, кто Вы:
робот инопланетянин человек

Внимание! Время в таблицах - всемирное. Для получения местного времени необходимо прибавить поправку, которая равна 3 ч.

Смотрите также архив погоды в соседних городах и на ближайших метеорологических станциях:

Погода в Теберде (Карачаево-Черкессия, Россия) (48 км)
Погода в Черкесске (Карачаево-Черкессия, Россия) (56 км)
Погода в Домбае (Карачаево-Черкессия, Россия) (56 км)
Погода в Отрадной (Краснодарский край, Россия) (59 км)
Погода в Архызе (Карачаево-Черкессия, Россия) (63 км)
Погода в Псебае (Краснодарский край, Россия) (70 км)
Погода на Клухорском Перевале (Карачаево-Черкессия, Россия) (87 км)
Погода в Шаджатмазе (Карачаево-Черкессия, Россия) (90 км)
Погода в Невинномысске (Ставропольский край, Россия) (90 км)
Погода в Кисловодске (Ставропольский край, Россия) (92 км)

Пояснения к столбцам:

Ветер - указаны скорость ветра в м/с - средняя за 10 мин, порывы в срок и между сроками (в фигурных скобках) и направление, откуда дует ветер: С - северный, СВ - северо-восточный, В - восточный, ЮВ - юго-восточный, Ю - южный, ЮЗ - юго-западный, З - западный, СЗ - северо-западный.
Видимость - горизонтальная дальность видимости в метрах или километрах. При видимости от 1 до 10 км при отсутствии осадков обычно наблюдается дымка, при ухудшении видимости до 1 км и менее - туман. В сухую погоду видимость может ухудшаться дымом, пылью или мглою.
Явления - указаны атмосферные явления, наблюдавшиеся в срок или в последний час перед сроком; фигурными скобками обозначены явления, наблюдавшиеся между сроками (за 1-3 часа до срока); квадратными скобками обозначены град или гололедные отложения с указанием их диаметра в мм.
Облачность - указаны через наклонную черту общая и нижняя облачность в баллах и высота нижней границы облаков в метрах; квадратными скобками обозначены формы облаков: Ci - перистые, Cs - перисто-слоистые, Cc - перисто-кучевые, Ac - высококучевые, As - высокослоистые, Sc - слоисто-кучевые, Ns - слоисто-дождевые, Cu - кучевые, Cb - кучево-дождевые. Подробнее классификацию облаков см. в Атласе облаков (PDF).
T - Температура воздуха - температура, измеренная на высоте 2 м над землей.
Td - Температура точки росы - температура, при понижении до которой содержащийся в воздухе водяной пар достигнет насыщения.
f - Относительная влажность воздуха - влажноcть воздуха, измеренная на высоте 2 м над землей.
Te - Эффективная температура - температура, которую ощущает одетый по сезону человек в тени. Характеристика душности погоды. При расчете учитывается влияние влажности воздуха и скорости ветра на теплоощущения человека.
Tes - Эффективная температура на солнце - температура, которую ощущает человек, с поправкой на солнечный нагрев. Характеристика знойности погоды. Зависит от высоты солнца над горизонтом, облачности и скорости ветра. Ночью, в пасмурную погоду, а также при ветре 12 м/с и более поправка равна нулю.
P - Атмосферное давление - приведенное к уровню моря атмосферное давление.
Po - Атмосферное давление - измеренное на уровне метеостанции атмосферное давление.
Tmin - Минимальная температура - минимум температуры воздуха на высоте 2 м над землей.
Tmax - Максимальная температура - максимум температуры воздуха на высоте 2 м над землей.
R - Количество осадков - Количество выпавших осадков за период времени, мм. При наведении курсора мыши на число - период времени, за который выпало указанное количество осадков.
R24 - Количество осадков - Количество выпавших осадков за 24 часа, мм.
S - Снежный покров - Высота снежного покрова, см. При наведении курсора мыши на число - состояние снежного покрова и степень покрытия местности в баллах.